{"data":{"norad_id":68554,"intl_designator":"2026-070N","name":"STARLINK-37255","alt_names":[],"object_type":"PAYLOAD","status":"ACTIVE","operator":null,"country":"US","launch_date":"2026-04-02","launch_site_code":"AFETR","launch_vehicle":null,"mission":null,"orbit_class":"UNKNOWN","rcs_meters":null,"size_class":null,"mass_kg":null,"dimensions":null,"purposes":["comms"],"wikipedia_slug":null,"has_3d_model":false,"image_url":null,"decayed_at":null,"tle_current":{"epoch":"2026-09-19T22:46:37.132032Z","epoch_age_seconds":92235,"freshness":"FRESH","line1":"1 68554U 26070N   26262.94904088  .00017206  00000+0  51926-3 0  9994","line2":"2 68554  53.1597 176.2341 0001620  81.9255 278.1931 15.34396937 26350","mean_motion":15.34396937,"eccentricity":0.000162,"inclination_deg":53.1597,"raan_deg":176.2341,"arg_perigee_deg":81.9255,"mean_anomaly_deg":278.1931,"bstar":0.00051926,"rev_number":2635,"period_min":93.847945422482,"perigee_km":461.60412651,"apogee_km":463.82056169749,"semimajor_km":6840.8493441037,"source":"CELESTRAK","updated_at":"2026-09-20T09:00:43.934903Z"}}}